When you browse on this site, cookies collect data to enhance your experience and personalize the content and advertising you see.
Visit our Privacy Policy to learn more. By continuing to use the site, you agree to this use of cookies and data.
  • In Latvia
  • List of Countries
  • For 7 days
  • Water Temperature
  • Satellite Maps
  • Weather Map
  • Weather Widgets
  • user-avatar
    Login

    Hourly Weather Vitebsk

    Today, 25 June, Tuesday

    Time Temperature Precipitation Wind Pressure Humidity
    00:00 +14°C° 0 mm 2 mps 755 mmHg 80%
    01:00 +14°C° 0 mm 2 mps 756 mmHg 82%
    02:00 +13°C° 0 mm 2 mps 756 mmHg 86%
    03:00 +13°C° 0 mm 2 mps 756 mmHg 86%
    04:00 +13°C° 0 mm 2 mps 756 mmHg 87%
    05:00 +14°C° 0 mm 2 mps 756 mmHg 87%
    06:00 +16°C° 0 mm 2 mps 756 mmHg 81%
    07:00 +17°C° 0 mm 2 mps 757 mmHg 75%
    08:00 +19°C° 0 mm 2 mps 757 mmHg 69%
    09:00 +20°C° 0 mm 2 mps 757 mmHg 64%
    10:00 +21°C° 0 mm 2 mps 757 mmHg 58%
    11:00 +23°C° 0 mm 2 mps 757 mmHg 52%
    12:00 +24°C° 0 mm 1 mps 757 mmHg 50%
    13:00 +24°C° 0 mm 1 mps 757 mmHg 48%
    14:00 +25°C° 0 mm 1 mps 757 mmHg 45%
    15:00 +24°C° 0 mm 1 mps 757 mmHg 48%
    16:00 +24°C° 0 mm 1 mps 756 mmHg 50%
    17:00 +24°C° 0 mm 1 mps 756 mmHg 52%
    18:00 +22°C° 0 mm 1 mps 756 mmHg 59%
    19:00 +21°C° 0 mm 1 mps 756 mmHg 65%
    20:00 +19°C° 0 mm 1 mps 756 mmHg 71%
    21:00 +18°C° 0 mm 1 mps 756 mmHg 71%
    22:00 +16°C° 0 mm 1 mps 755 mmHg 71%
    23:00 +15°C° 0 mm 1 mps 755 mmHg 71%

    Tomorrow, 26 June, Wednesday

    Time Temperature Precipitation Wind Pressure Humidity
    00:00 +15°C° 0 mm 1 mps 755 mmHg 74%
    01:00 +15°C° 0 mm 1 mps 755 mmHg 77%
    02:00 +14°C° 0 mm 2 mps 755 mmHg 80%
    03:00 +15°C° 0 mm 2 mps 755 mmHg 82%
    04:00 +15°C° 0 mm 2 mps 754 mmHg 84%
    05:00 +15°C° 0 mm 2 mps 754 mmHg 86%
    06:00 +17°C° 0 mm 2 mps 754 mmHg 83%
    07:00 +18°C° 0 mm 2 mps 754 mmHg 80%
    08:00 +20°C° 0 mm 3 mps 753 mmHg 76%
    09:00 +21°C° 0 mm 3 mps 753 mmHg 71%
    10:00 +22°C° 0 mm 3 mps 752 mmHg 66%
    11:00 +25°C° 0 mm 3 mps 752 mmHg 61%
    12:00 +25°C° 0 mm 4 mps 751 mmHg 61%
    13:00 +26°C° 0 mm 4 mps 751 mmHg 60%
    14:00 +26°C° 0 mm 4 mps 750 mmHg 59%
    15:00 +26°C° 0 mm 4 mps 750 mmHg 62%
    16:00 +26°C° 0 mm 4 mps 749 mmHg 66%
    17:00 +25°C° 0 mm 4 mps 748 mmHg 69%
    18:00 +23°C° 0 mm 4 mps 747 mmHg 74%
    19:00 +22°C° 0 mm 4 mps 746 mmHg 79%
    20:00 +21°C° 0 mm 4 mps 745 mmHg 84%
    21:00 +21°C° 1.1 mm 4 mps 745 mmHg 87%
    22:00 +20°C° 1.1 mm 5 mps 744 mmHg 91%
    23:00 +20°C° 1.1 mm 5 mps 743 mmHg 94%

    Day after tomorrow, 27 June, Thursday

    Time Temperature Precipitation Wind Pressure Humidity
    00:00 +20°C° 0.7 mm 5 mps 742 mmHg 95%
    01:00 +20°C° 0.7 mm 5 mps 741 mmHg 96%
    02:00 +20°C° 0.7 mm 4 mps 740 mmHg 97%
    03:00 +20°C° 0.7 mm 5 mps 739 mmHg 97%
    04:00 +20°C° 0.7 mm 5 mps 738 mmHg 97%
    05:00 +20°C° 0.7 mm 5 mps 737 mmHg 97%
    06:00 +20°C° 1.3 mm 5 mps 737 mmHg 95%
    07:00 +21°C° 1.3 mm 6 mps 736 mmHg 92%
    08:00 +21°C° 1.3 mm 6 mps 736 mmHg 90%
    09:00 +21°C° 0.9 mm 7 mps 736 mmHg 89%
    10:00 +21°C° 0.9 mm 7 mps 736 mmHg 89%
    11:00 +21°C° 0.9 mm 8 mps 736 mmHg 89%
    12:00 +20°C° 0.2 mm 8 mps 736 mmHg 85%
    13:00 +18°C° 0.2 mm 7 mps 736 mmHg 81%
    14:00 +17°C° 0.2 mm 7 mps 737 mmHg 78%
    15:00 +16°C° 0.2 mm 7 mps 737 mmHg 80%
    16:00 +16°C° 0.2 mm 6 mps 737 mmHg 82%
    17:00 +15°C° 0.2 mm 6 mps 737 mmHg 84%
    18:00 +15°C° 0.1 mm 6 mps 737 mmHg 85%
    19:00 +14°C° 0.1 mm 5 mps 737 mmHg 85%
    20:00 +14°C° 0.1 mm 5 mps 737 mmHg 86%
    21:00 +13°C° 0 mm 5 mps 737 mmHg 87%
    22:00 +13°C° 0 mm 5 mps 737 mmHg 88%
    23:00 +12°C° 0 mm 5 mps 737 mmHg 90%

    28 June, Friday

    Time Temperature Precipitation Wind Pressure Humidity
    00:00 +12°C° 0 mm 5 mps 736 mmHg 90%
    01:00 +11°C° 0 mm 6 mps 736 mmHg 91%
    02:00 +10°C° 0 mm 6 mps 736 mmHg 92%
    03:00 +11°C° 0 mm 6 mps 736 mmHg 90%
    04:00 +11°C° 0 mm 7 mps 736 mmHg 87%
    05:00 +11°C° 0 mm 7 mps 736 mmHg 85%
    06:00 +11°C° 0.1 mm 7 mps 736 mmHg 85%
    07:00 +11°C° 0.1 mm 7 mps 736 mmHg 85%
    08:00 +12°C° 0.1 mm 7 mps 736 mmHg 85%
    09:00 +12°C° 0.1 mm 8 mps 736 mmHg 82%
    10:00 +12°C° 0.1 mm 8 mps 736 mmHg 80%
    11:00 +13°C° 0.1 mm 8 mps 736 mmHg 78%
    12:00 +13°C° 0.1 mm 8 mps 737 mmHg 76%
    13:00 +15°C° 0.1 mm 8 mps 737 mmHg 74%
    14:00 +15°C° 0.1 mm 8 mps 737 mmHg 72%
    15:00 +15°C° 0.1 mm 8 mps 737 mmHg 71%
    16:00 +16°C° 0.1 mm 7 mps 737 mmHg 71%
    17:00 +16°C° 0.1 mm 7 mps 737 mmHg 70%
    18:00 +14°C° 0.1 mm 6 mps 738 mmHg 73%
    19:00 +13°C° 0.1 mm 5 mps 738 mmHg 76%
    20:00 +12°C° 0.1 mm 5 mps 738 mmHg 79%
    21:00 +10°C° 0 mm 5 mps 738 mmHg 75%
    22:00 +9°C° 0 mm 5 mps 739 mmHg 71%
    23:00 +10°C° 0 mm 4 mps 739 mmHg 67%

    29 June, Saturday

    Time Temperature Precipitation Wind Pressure Humidity
    00:00 +8°C° 0 mm 5 mps 739 mmHg 68%
    01:00 +8°C° 0 mm 5 mps 739 mmHg 69%
    02:00 +7°C° 0 mm 5 mps 739 mmHg 70%
    03:00 +7°C° 0 mm 5 mps 739 mmHg 71%
    04:00 +7°C° 0 mm 5 mps 739 mmHg 71%
    05:00 +7°C° 0 mm 5 mps 740 mmHg 71%
    06:00 +8°C° 0 mm 6 mps 740 mmHg 67%
    07:00 +10°C° 0 mm 6 mps 740 mmHg 63%
    08:00 +11°C° 0 mm 7 mps 740 mmHg 59%
    09:00 +12°C° 0 mm 7 mps 740 mmHg 57%
    10:00 +12°C° 0 mm 7 mps 741 mmHg 56%
    11:00 +14°C° 0 mm 7 mps 741 mmHg 55%
    12:00 +15°C° 0 mm 7 mps 741 mmHg 54%
    13:00 +15°C° 0 mm 7 mps 741 mmHg 53%
    14:00 +16°C° 0 mm 7 mps 741 mmHg 52%
    15:00 +16°C° 0 mm 6 mps 741 mmHg 53%
    16:00 +16°C° 0 mm 6 mps 741 mmHg 55%
    17:00 +16°C° 0 mm 5 mps 741 mmHg 56%
    18:00 +15°C° 0 mm 5 mps 741 mmHg 58%
    19:00 +13°C° 0 mm 4 mps 742 mmHg 60%
    20:00 +12°C° 0 mm 3 mps 742 mmHg 62%
    21:00 +11°C° 0 mm 3 mps 742 mmHg 62%
    22:00 +10°C° 0 mm 3 mps 742 mmHg 63%
    23:00 +9°C° 0 mm 2 mps 743 mmHg 63%

    30 June, Sunday

    Time Temperature Precipitation Wind Pressure Humidity
    00:00 +9°C° 0 mm 2 mps 743 mmHg 67%
    01:00 +9°C° 0 mm 3 mps 743 mmHg 70%
    02:00 +9°C° 0 mm 3 mps 743 mmHg 74%
    03:00 +9°C° 0 mm 3 mps 743 mmHg 78%
    04:00 +9°C° 0 mm 3 mps 743 mmHg 83%
    05:00 +8°C° 0 mm 3 mps 743 mmHg 88%
    06:00 +10°C° 0 mm 3 mps 744 mmHg 84%
    07:00 +12°C° 0 mm 3 mps 744 mmHg 81%
    08:00 +14°C° 0 mm 4 mps 744 mmHg 77%
    09:00 +15°C° 0.1 mm 4 mps 744 mmHg 73%
    10:00 +18°C° 0.1 mm 4 mps 745 mmHg 70%
    11:00 +19°C° 0.1 mm 4 mps 745 mmHg 66%
    12:00 +19°C° 0.2 mm 4 mps 745 mmHg 66%
    13:00 +20°C° 0.2 mm 4 mps 745 mmHg 65%
    14:00 +21°C° 0.2 mm 4 mps 744 mmHg 64%
    15:00 +21°C° 0.1 mm 3 mps 744 mmHg 65%
    16:00 +21°C° 0.1 mm 3 mps 744 mmHg 66%
    17:00 +21°C° 0.1 mm 3 mps 744 mmHg 68%
    18:00 +20°C° 0 mm 3 mps 744 mmHg 73%
    19:00 +18°C° 0 mm 2 mps 744 mmHg 79%
    20:00 +17°C° 0 mm 2 mps 744 mmHg 84%
    21:00 +16°C° 0 mm 2 mps 744 mmHg 86%
    22:00 +16°C° 0 mm 2 mps 744 mmHg 87%
    23:00 +15°C° 0 mm 2 mps 744 mmHg 89%
    Show more